Location: D�derode
(51.8092°N, 10.1065°E)
Time: 20:05:52
(UTC+00:00)

SJ-7 - Pass Details

Date: 01 December 2020
Orbit: 556 x 601 km, 97.7° (Epoch: 25 January)

Event Time Altitude Azimuth Distance (km) Brightness Sun altitude
Rises 15:57:48 0° 163° (SSE) 2,730 8.0 -6.8°
Reaches altitude 10° 15:59:55 10° 163° (SSE) 1,839 7.1 -7.1°
Maximum altitude 16:03:54 85° 77° (ENE) 566 4.3 -7.7°
Drops below altitude 10° 16:07:55 10° 347° (NNW) 1,858 6.9 -8.2°
Sets 16:10:04 0° 347° (NNW) 2,762 7.8 -8.5°
